Weather History for KITH - November, 2014

Change the Weather History Date:

Wednesday, November 5, 2014

  Actual Average Record
Temperature  
Mean Temperature 48 °F -  
Max Temperature 61 °F 50 °F 72 °F (1987)
Min Temperature 36 °F 34 °F 15 °F (1991)
Degree Days  
Heating Degree Days 16    
Moisture  
Dew Point 36 °F    
Average Humidity 61    
Maximum Humidity 93    
Minimum Humidity 28    
Precipitation  
Precipitation 0.00 in - - ()
Sea Level Pressure  
Sea Level Pressure 30.08 in    
Wind  
Wind Speed 10 mph (WNW)    
Max Wind Speed 21 mph    
Max Gust Speed 28 mph    
Visibility 10 miles    
Events Rain    
Averages and records for this station are not official NWS values.
T = Trace of Precipitation, MM = Missing Value Source: NWS Daily Summary

Daily Weather History Graph

Daily Weather History Graph

Search for Another Location

Airport or City:

Trip Planner

Search our weather history database for the weather conditions in past years. The results will help you decide how hot, cold, wet, or windy it might be!

Date:

Astronomy

Nov. 05, 2014 Rise Set
Actual Time 6:44 AM EST 4:53 PM EST
Civil Twilight 6:14 AM EST 5:23 PM EST
Nautical Twilight 5:41 AM EST 5:56 PM EST
Astronomical Twilight 5:08 AM EST 6:29 PM EST
Moon 4:19 PM EST (11/5) 5:04 AM EST (11/5)
Length of Visible Light 11h 08m
Length of Day
10h 09m
Waxing Gibbous, 98% of the Moon is Illuminated
Nov 5
Waxing Gibbous
Nov 6
Full
Nov 14
Last Quarter
Nov 22
New
Nov 29
First Quarter

Hourly Weather History & Observations

Time (EST) Temp. Windchill Dew Point Humidity Pressure Visibility Wind Dir Wind Speed Gust Speed Precip Events Conditions
12:56 AM 61.0 °F - 27.1 °F 28% 29.93 in 10.0 mi SW 12.7 mph - N/A   Overcast
1:56 AM 59.9 °F - 30.0 °F 32% 29.94 in 10.0 mi West 8.1 mph - N/A   Overcast
2:56 AM 54.9 °F - 46.9 °F 75% 29.98 in 10.0 mi North 5.8 mph - 0.00 in Rain Light Rain
3:56 AM 54.0 °F - 47.8 °F 80% 30.00 in 10.0 mi NNW 6.9 mph - 0.00 in Rain Light Rain
4:03 AM 53.6 °F - 48.2 °F 82% 29.99 in 10.0 mi NNW 6.9 mph - 0.00 in Rain Light Rain
4:56 AM 54.0 °F - 45.0 °F 72% 30.03 in 10.0 mi WNW 20.7 mph 26.5 mph 0.00 in   Overcast
5:03 AM 53.6 °F - 44.6 °F 72% 30.03 in 10.0 mi WNW 17.3 mph 27.6 mph N/A   Mostly Cloudy
5:56 AM 52.0 °F - 41.9 °F 69% 30.07 in 10.0 mi WNW 11.5 mph - N/A   Mostly Cloudy
6:18 AM 51.8 °F - 41.0 °F 67% 30.08 in 10.0 mi WNW 8.1 mph - N/A   Mostly Cloudy
6:56 AM 50.9 °F - 37.9 °F 61% 30.08 in 10.0 mi West 12.7 mph - N/A   Scattered Clouds
7:56 AM 48.9 °F - 37.9 °F 66% 30.11 in 10.0 mi WNW 8.1 mph - N/A   Partly Cloudy
8:56 AM 48.9 °F - 36.9 °F 63% 30.13 in 10.0 mi West 9.2 mph - N/A   Clear
9:56 AM 50.9 °F - 36.0 °F 57% 30.13 in 10.0 mi SW 9.2 mph 16.1 mph N/A   Clear
10:56 AM 52.9 °F - 34.0 °F 49% 30.12 in 10.0 mi WSW 12.7 mph - N/A   Clear
11:56 AM 54.0 °F - 32.0 °F 43% 30.11 in 10.0 mi WSW 11.5 mph - N/A   Partly Cloudy
12:56 PM 55.9 °F - 32.0 °F 40% 30.10 in 10.0 mi SW 17.3 mph 23.0 mph N/A   Scattered Clouds
1:56 PM 57.9 °F - 32.0 °F 37% 30.09 in 10.0 mi WSW 12.7 mph - N/A   Scattered Clouds
2:56 PM 57.9 °F - 32.9 °F 39% 30.08 in 10.0 mi West 9.2 mph - N/A   Partly Cloudy
3:56 PM 56.8 °F - 31.1 °F 38% 30.08 in 10.0 mi WSW 9.2 mph - N/A   Clear
4:56 PM 52.0 °F - 32.9 °F 48% 30.10 in 10.0 mi NNW 3.5 mph - N/A   Clear
5:56 PM 48.9 °F - 32.0 °F 52% 30.11 in 10.0 mi WSW 3.5 mph - N/A   Clear
6:56 PM 46.9 °F - 32.0 °F 56% 30.12 in 10.0 mi North 4.6 mph - N/A   Clear
7:56 PM 38.8 °F 36.5 °F 32.9 °F 79% 30.15 in 10.0 mi NE 3.5 mph - N/A   Clear
8:56 PM 37.9 °F - 32.9 °F 82% 30.16 in 10.0 mi Calm Calm - N/A   Clear
9:56 PM 36.0 °F 33.3 °F 32.0 °F 86% 30.16 in 10.0 mi ENE 3.5 mph - N/A   Clear
10:56 PM 36.0 °F 33.3 °F 32.9 °F 89% 30.15 in 10.0 mi East 3.5 mph - N/A   Clear
11:56 PM 36.0 °F 32.1 °F 34.0 °F 93% 30.13 in 10.0 mi ENE 4.6 mph - N/A   Clear